This is the latest recevied weather packets stored in our database for station/object K7PMV-13. If no packets are shown the sender has not sent any weather packets the latest 10 day(s).
| Time | Temp. | Humidity | Pressure | Rain* | Wind** | Luminosity | Snow |
|---|---|---|---|---|---|---|---|
| 1777834320 | 33.33° C | 23% | 1006.1 hPa | 0 mm | - | 647 W/m² | - |
| 1777834004 | 32.78° C | 22% | 1006.1 hPa | 0 mm | - | 508 W/m² | - |
| 1777833689 | 32.78° C | 23% | 1006.1 hPa | 0 mm | - | 475 W/m² | - |
| 1777833375 | 32.78° C | 23% | 1006.1 hPa | 0 mm | - | 582 W/m² | - |
| 1777833045 | 32.78° C | 24% | 1006.2 hPa | 0 mm | - | 561 W/m² | - |
| 1777832371 | 32.78° C | 24% | 1006.5 hPa | 0 mm | - | 469 W/m² | - |
| 1777832048 | 32.78° C | 25% | 1006.4 hPa | 0 mm | - | 499 W/m² | - |
| 1777831734 | 32.78° C | 25% | 1006.6 hPa | 0 mm | - | 550 W/m² | - |
| 1777831419 | 32.78° C | 24% | 1006.6 hPa | 0 mm | - | 571 W/m² | - |
| 1777831105 | 32.78° C | 25% | 1006.7 hPa | 0 mm | - | 668 W/m² | - |
| 1777830790 | 32.22° C | 26% | 1006.8 hPa | 0 mm | - | 687 W/m² | - |
| 1777830475 | 32.22° C | 26% | 1006.9 hPa | 0 mm | - | 570 W/m² | - |
| 1777830161 | 32.22° C | 26% | 1006.9 hPa | 0 mm | - | 543 W/m² | - |
| 1777829841 | 32.22° C | 26% | 1006.9 hPa | 0 mm | - | 724 W/m² | - |
| 1777829523 | 32.22° C | 27% | 1007 hPa | 0 mm | - | 919 W/m² | - |
| 1777829201 | 31.67° C | 26% | 1007.1 hPa | 0 mm | - | 729 W/m² | - |
| 1777828876 | 31.67° C | 26% | 1007 hPa | 0 mm | - | 670 W/m² | - |
| 1777828561 | 31.11° C | 27% | 1007.1 hPa | 0 mm | - | 642 W/m² | - |
| 1777828236 | 31.11° C | 26% | 1007.1 hPa | 0 mm | - | 464 W/m² | - |
| 1777827905 | 31.11° C | 27% | 1007.1 hPa | 0 mm | - | 640 W/m² | - |
| 1777827275 | 30.56° C | 28% | 1007.1 hPa | 0 mm | - | 422 W/m² | - |
| 1777826878 | 30° C | 29% | 1007.1 hPa | 0 mm | - | 415 W/m² | - |
| 1777826561 | 30° C | 29% | 1007.1 hPa | 0 mm | - | 462 W/m² | - |
| 1777826246 | 30° C | 29% | 1007.1 hPa | 0 mm | - | 541 W/m² | - |
| 1777825931 | 29.44° C | 30% | 1007.2 hPa | 0 mm | - | 508 W/m² | - |
* Rain latest hour (hover to see other rain measurements)
** Current wind speed in m/s (hover to see current wind gust speed)